Location: B�hmisch Kubitzen
(49.3687°N, 12.8585°E)
Time: 06:18:56
(UTC+00:00)

Daily predictions for brighter satellites

Satellite Brightness Start Highest point End
(mag) Time Altitude Azimuth Time Altitude Azimuth Time Altitude Azimuth
GEOS 3 Rocket 3.9 18:13:32 10° SSE 18:18:40 71° SW 18:23:56 10° NW
Aureole 3 4.3 18:14:25 10° S 18:19:28 88° E 18:25:57 10° N
COSMOS 2455 3.4 18:14:05 10° NNW 18:19:53 45° NE 18:25:39 10° ESE
SPOT 3 Rocket 4.2 18:15:22 10° SE 18:20:06 37° ENE 18:24:51 10° N
YAOGAN 1 4.4 18:17:55 10° SSW 18:21:53 35° W 18:25:52 10° NNW
STARLINK-1192 4.2 18:18:03 10° WNW 18:22:07 52° N 18:26:11 10° E
MONITOR-E 4.0 18:23:38 10° SSE 18:26:12 49° ENE 18:28:47 10° N
STARLINK-1244 4.2 18:23:02 10° WNW 18:27:07 53° N 18:31:11 10° E
NOSS 3-4 (A) 3.9 18:21:57 10° NW 18:28:53 84° NE 18:36:33 10° SE
NOSS 3-4 (C) 3.9 18:22:03 10° NW 18:28:59 84° NE 18:36:40 10° SE
STARLINK-1201 3.2 18:27:11 10° WNW 18:30:26 63° NNE 18:33:40 10° E
SL-08 RB Rocket 4.0 18:27:07 10° SE 18:31:33 51° ENE 18:36:02 10° N
STARLINK-1138 4.1 18:28:02 10° WNW 18:32:07 54° N 18:36:12 10° E
Cosmos 1818 3.6 18:27:41 10° SSW 18:33:06 78° SE 18:38:35 10° NE
Cosmos 1437 3.1 18:30:16 10° NNW 18:33:16 62° W 18:36:14 10° S
STARLINK-1228 2.5 18:30:54 10° WNW 18:33:42 83° NNE 18:36:17 11° ESE
CZ-4C R/B 4.2 18:30:22 10° NW 18:35:41 26° NNE 18:41:46 10° ENE
STARLINK-1143 4.1 18:33:00 10° WNW 18:37:06 56° N 18:41:11 10° E
FALCON 9 DEB 4.4 18:34:58 10° SSW 18:37:48 23° SE 18:40:38 10° E
Cosmos 1603 4.0 18:32:43 10° SW 18:38:20 72° WNW 18:43:58 10° NNE
NOSS 3-3 (A) 4.3 18:33:05 10° SW 18:39:04 74° NW 18:45:54 10° NE
NOSS 3-3 (C) 4.3 18:33:12 10° SW 18:39:10 74° NW 18:46:00 10° NE
ATLAS CENTAUR R/B 3.7 18:37:43 10° N 18:39:18 12° NNE 18:40:51 10° NE
ATLAS 5 CENTAUR R/B 2.1 18:37:10 10° S 18:40:56 34° ESE 18:45:08 10° NE
Cosmos 2058 Rocket 3.7 18:36:48 10° SSE 18:40:56 37° E 18:45:05 10° NNE
Cosmos 2184 Rocket 4.1 18:34:52 10° N 18:41:13 87° W 18:47:26 10° S
STARLINK-1241 4.1 18:38:02 10° WNW 18:42:08 57° NNE 18:46:07 11° E
STARLINK-52 4.2 18:40:44 10° SSW 18:43:20 23° SE 18:45:37 12° E
Cosmos 1726 Rocket 3.6 18:41:54 10° S 18:46:15 62° E 18:50:39 10° NNE
STARLINK-1239 4.0 18:42:59 10° WNW 18:47:06 58° NNE 18:50:52 12° E
Meteor 2-17 Rocket 4.4 18:43:39 10° N 18:49:50 74° ENE 18:55:59 10° SSE
Aureole 1 Rocket 4.1 18:42:49 10° S 18:50:06 64° ESE 18:55:47 10° NNE
FREGAT/IRIS 3.1 18:48:33 10° S 18:51:13 53° W 18:53:55 10° NNW
SJ-6B 2.9 18:47:16 10° SSE 18:51:24 90° SW 18:55:34 10° NNW
Meteor 1-16 Rocket 4.2 18:46:09 10° SSW 18:51:35 87° W 18:57:15 10° NNE
STARLINK-1240 4.0 18:47:59 10° WNW 18:52:06 60° NNE 18:55:39 13° E
Cosmos 1825 Rocket 4.1 18:47:50 10° NNW 18:52:12 63° W 18:56:29 10° S
Cosmos 921 Rocket 3.1 18:49:22 10° NNW 18:53:30 56° ENE 18:57:17 12° SE
H-2A R/B 2.5 18:50:17 10° S 18:55:26 64° WSW 19:00:28 10° NNW
STARLINK-1216 3.9 18:52:58 10° WNW 18:57:06 62° NNE 19:00:26 15° E
Cosmos 1461 3.2 18:52:57 10° NW 18:57:30 80° SW 19:01:46 12° SSE
USA 234 4.3 18:53:14 10° ENE 18:57:58 21° SE 19:02:39 10° S
Resurs 01 Rocket 2.1 18:54:19 13° SE 18:57:59 41° ENE 19:02:09 10° N
SeaSat 1 3.4 18:56:00 10° NNE 19:00:48 53° NW 19:05:35 10° SW
Cosmos 2228 3.1 18:56:46 10° SSW 19:01:05 81° W 19:05:28 10° N
ATLAS 2AS CENTAUR R/B 3.2 18:53:34 10° NW 19:01:07 67° SW 19:08:02 10° SSE
Nadezhda 1 Rocket 4.0 18:54:50 10° S 19:01:13 78° E 19:07:33 10° NNE
STARLINK-1237 3.9 18:57:56 10° WNW 19:02:04 64° NNE 19:05:12 17° E
Cosmos 1300 3.5 19:00:26 12° SSE 19:03:29 31° E 19:06:54 10° NNE
Cosmos 2154 Rocket 4.1 18:57:37 10° N 19:04:02 90° W 19:10:22 10° S
CZ-2C R/B 3.5 18:59:29 10° S 19:04:15 57° W 19:08:58 10° NNW
SL-8 Rocket 4.5 18:58:49 10° N 19:04:50 43° ENE 19:09:51 15° SE
Cosmos 2369 Rocket 4.4 19:01:04 10° NW 19:05:29 24° WSW 19:09:52 10° SSW
STARLINK-1202 3.8 19:02:57 10° WNW 19:07:06 66° NNE 19:10:01 19° E
USA 186 3.3 19:04:33 10° SSW 19:07:37 36° W 19:10:34 10° NNW
Ariane Rocket 4.3 19:05:51 10° SSW 19:10:37 41° W 19:15:25 10° NNW
Cosmos 1140 Rocket 3.4 19:07:00 10° S 19:12:08 64° ESE 19:17:15 10° NNE
BREEZE M DEB (TANK) 3.9 19:02:50 10° SW 19:12:21 49° SSE 19:14:50 19° E
RESURS DK-1 4.2 19:10:49 10° N 19:13:52 19° NE 19:15:51 14° ENE
SL-4 R/B 1.5 19:10:45 10° WSW 19:14:09 85° NNW 19:16:52 16° ENE
Cosmos 1953 Rocket 4.3 19:10:11 10° NNW 19:14:34 55° W 19:18:57 10° S
Cosmos 1703 4.5 19:11:41 10° NNW 19:15:28 43° W 19:19:14 10° SSW
Cosmos 2058 3.9 19:12:43 10° N 19:16:21 29° ENE 19:17:52 23° ESE
Cosmos 1606 Rocket 4.4 19:12:08 10° SSW 19:16:29 55° WNW 19:20:55 10° N
STARLINK-1234 3.2 19:13:57 10° WNW 19:16:50 51° SSW 19:18:03 29° SSE
STARLINK-1246 3.7 19:12:54 10° WNW 19:17:03 72° NNE 19:19:33 23° E
STARLINK-1209 3.3 19:14:34 10° WNW 19:17:27 48° SSW 19:18:37 28° SSE
Cosmos 1340 Rocket 2.7 19:13:43 10° S 19:17:46 86° E 19:21:49 10° NNE
Cosmos 2366 rocket 4.4 19:12:29 10° N 19:18:20 43° ENE 19:22:16 20° SE
STARLINK-1233 3.0 19:17:53 10° WNW 19:21:00 64° SSW 19:22:13 33° SE
STARLINK-1203 3.7 19:16:48 10° WNW 19:21:01 77° NNE 19:23:24 25° ESE
STARLINK-1212 3.0 19:18:19 10° WNW 19:21:26 63° SSW 19:22:37 33° SE
STARLINK-1105 3.0 19:18:46 10° WNW 19:21:54 63° SSW 19:23:04 33° SE
STARLINK-1224 3.7 19:17:54 10° WNW 19:22:03 75° NNE 19:24:21 25° ESE
Cosmos 1190 Rocket 4.0 19:17:00 10° SSW 19:22:19 87° ESE 19:27:38 10° NNE
Cosmos 614 Rocket 4.3 19:17:06 10° SSW 19:22:19 70° WNW 19:27:32 10° NNE
STARLINK-1206 3.0 19:19:16 10° WNW 19:22:21 62° SSW 19:23:29 34° SE
Spot 2 Rocket 4.1 19:19:28 21° SE 19:22:24 41° ENE 19:27:11 10° N
STARLINK-1247 3.0 19:19:42 10° WNW 19:22:48 61° SSW 19:23:55 34° SE
STARLINK-1227 3.1 19:20:07 10° WNW 19:23:14 61° SSW 19:24:22 34° SE
STARLINK-1218 3.1 19:20:36 10° WNW 19:23:41 61° SSW 19:24:47 35° SE
STARLINK-1226 3.1 19:21:02 10° WNW 19:24:08 60° SSW 19:25:13 35° SE
Cosmos 1908 4.2 19:20:40 10° SSW 19:24:25 50° WNW 19:28:14 10° N
STARLINK-1254 3.1 19:21:28 10° WNW 19:24:35 60° SSW 19:25:40 35° SE
STARLINK-1215 3.1 19:21:58 10° WNW 19:25:03 59° SSW 19:26:06 35° SE
STARLINK-1231 3.1 19:22:25 10° WNW 19:25:30 59° SSW 19:26:31 36° SSE
ERBS 2.7 19:22:11 10° NW 19:25:31 54° NNE 19:26:51 31° E
STARLINK-1232 3.1 19:23:19 10° WNW 19:26:25 58° SSW 19:27:24 36° SSE
COSMOS 2406 4.4 19:26:20 21° ESE 19:26:27 21° E 19:30:35 10° NE
STARLINK-1217 3.1 19:23:45 10° WNW 19:26:50 57° SSW 19:27:49 36° SSE
STARLINK-1225 3.6 19:22:53 10° WNW 19:27:03 78° NNE 19:29:09 28° ESE
STARLINK-1208 3.1 19:24:12 10° WNW 19:27:18 57° SSW 19:28:17 36° SSE
STARLINK-1229 3.1 19:24:40 10° WNW 19:27:45 56° SSW 19:28:41 37° SSE
STARLINK-1271 3.2 19:25:07 10° WNW 19:28:12 56° SSW 19:29:07 37° SSE
STARLINK-1270 3.2 19:25:35 10° WNW 19:28:39 56° SSW 19:29:33 38° SSE
STARLINK-1154 3.2 19:26:01 10° WNW 19:29:05 55° SSW 19:29:59 38° SSE
STARLINK-1197 3.2 19:26:57 10° WNW 19:30:01 54° SSW 19:30:52 38° SSE
STARLINK-1189 3.2 19:27:23 10° WNW 19:30:27 54° SSW 19:31:17 38° SSE
STARLINK-1198 3.2 19:27:51 10° WNW 19:30:55 53° SSW 19:31:44 39° SSE
STARLINK-1188 3.2 19:28:16 10° WNW 19:31:20 53° SSW 19:32:08 39° SSE
SL-24 R/B 4.1 19:27:29 10° N 19:31:36 70° WNW 19:35:18 10° SSW
STARLINK-1235 3.6 19:28:59 10° WNW 19:32:00 43° SSW 19:32:51 34° S
STARLINK-1230 3.6 19:27:51 10° WNW 19:32:01 81° NNE 19:33:55 31° ESE
STARLINK-1187 3.4 19:29:23 10° WNW 19:32:27 47° SSW 19:33:16 36° SSE
DMSP B5D2-2 4.0 19:27:24 10° NNE 19:32:40 81° ESE 19:37:54 10° SSW
Cosmos 1076 Rocket 3.9 19:28:37 10° N 19:32:44 44° ENE 19:34:16 31° SE
STARLINK-67 4.3 19:30:57 10° W 19:32:56 20° SW 19:33:19 19° SSW
STARLINK-1199 3.3 19:30:14 10° WNW 19:33:18 52° SSW 19:34:04 39° SSE
STARLINK-1191 3.3 19:30:41 10° WNW 19:33:45 51° SSW 19:34:30 40° SSE
STARLINK-1210 3.3 19:31:08 10° WNW 19:34:12 51° SSW 19:34:56 40° SSE
STARLINK-1221 3.3 19:31:37 10° WNW 19:34:40 50° SSW 19:35:23 40° SSE
STARLINK-1219 3.3 19:32:03 10° WNW 19:35:07 50° SSW 19:35:49 40° SSE
STARLINK-1222 3.3 19:32:30 10° WNW 19:35:33 50° SSW 19:36:15 40° SSE
STARLINK-1211 3.4 19:32:58 10° WNW 19:36:01 49° SSW 19:36:42 40° S
STARLINK-1214 3.4 19:33:23 10° WNW 19:36:27 49° SSW 19:37:06 40° S
Abrixas rocket 2.8 19:33:48 10° W 19:36:33 35° SSW 19:36:49 34° S
STARLINK-1245 3.4 19:33:54 10° WNW 19:36:55 48° SSW 19:37:32 41° S
STARLINK-1243 3.6 19:32:49 10° WNW 19:37:00 85° NNE 19:38:42 35° ESE
STARLINK-1238 3.4 19:34:18 10° WNW 19:37:22 48° SSW 19:37:59 40° S
Cosmos 1408 4.1 19:34:37 10° NNE 19:37:26 21° ENE 19:37:26 21° ENE
BREEZE-M DEB (TANK) 4.1 19:32:56 10° WNW 19:37:43 35° SW 19:38:39 28° S
Cosmos 468 Rocket 4.2 19:32:46 10° NNW 19:37:51 53° ENE 19:40:10 30° ESE
STARLINK-1205 3.4 19:35:15 10° WNW 19:38:17 47° SSW 19:38:51 41° S
STARLINK-1204 3.4 19:35:42 10° WNW 19:38:43 47° SSW 19:39:16 41° S
STARLINK-29 2.8 19:35:34 10° SW 19:38:45 66° SSE 19:39:26 48° E
CZ-2C R/B 2.5 19:36:44 10° NNE 19:41:56 83° ESE 19:47:09 10° SSW
STARLINK-1236 3.5 19:37:48 10° WNW 19:41:58 89° NNE 19:43:28 39° ESE
STARLINK-60 3.2 19:40:28 10° WSW 19:43:45 71° NNW 19:45:10 31° ENE
SPOT 5 3.9 19:43:20 23° E 19:44:04 25° ENE 19:47:36 10° N
Cosmos 1697 Rocket 3.7 19:40:52 10° NNW 19:46:00 33° NE 19:48:23 24° E
Terra 3.2 19:46:43 21° E 19:47:42 23° ENE 19:51:25 10° N
ERS-1 Rocket 3.7 19:47:11 30° E 19:48:42 37° ENE 19:53:17 10° N
Cosmos 407 Rocket 4.4 19:44:03 10° SW 19:49:03 51° WNW 19:54:04 10° NNE
Cosmos 676 Rocket 4.0 19:46:01 10° SSW 19:51:18 88° WNW 19:56:36 10° NNE
Iridium 2 3.5 19:50:40 41° SSE 19:51:53 73° E 19:55:43 10° N
STARLINK-1269 3.5 19:47:45 10° WNW 19:51:55 83° SSW 19:53:02 48° ESE
Meteor 2-1 Rocket 4.5 19:48:49 25° SSE 19:52:02 51° E 19:57:47 10° NNE
Cosmos-2242 4.2 19:56:39 26° ENE 19:56:39 26° ENE 19:59:38 10° NNE
Cosmos 192 4.3 19:51:16 10° NNW 19:56:15 86° ENE 19:58:14 37° SSE
STARLINK-1200 3.5 19:52:44 10° WNW 19:56:54 79° SSW 19:57:48 53° SE
STARLINK-1192 3.5 19:57:44 10° WNW 20:01:53 75° SSW 20:02:36 57° SE
SL-16 R/B 4.4 20:01:55 10° N 20:04:56 14° NNE 20:07:56 10° ENE
COSMOS 2455 3.7 20:00:11 10° NW 20:05:51 44° WSW 20:09:32 21° S
SL-08 R/B 4.5 19:59:51 10° N 20:05:58 64° ENE 20:08:28 37° SE
STARLINK-1201 4.3 20:03:35 10° W 20:06:17 31° SW 20:06:17 31° SW
STARLINK-1244 3.5 20:02:43 10° WNW 20:06:52 70° SSW 20:07:23 61° SSE
Cosmos 1656 3.7 20:03:35 10° NNW 20:09:18 71° ENE 20:11:09 43° SE
MOS 1 Rocket 4.3 20:05:54 10° N 20:11:09 55° WNW 20:16:27 10° SSW
Cosmos 1356 Rocket 4.1 20:12:13 39° ENE 20:12:13 39° ENE 20:15:31 10° NNE
STPSAT 2 (USA 217) 4.5 20:07:12 10° SSW 20:11:41 90° W 20:16:13 10° NNE
STARLINK-1138 3.6 20:07:42 10° WNW 20:11:50 66° SSW 20:12:10 62° S
Cosmos 1455 3.4 20:13:24 30° NE 20:13:24 30° NE 20:15:45 10° NNE
Cosmos 2322 Rocket 4.4 20:09:47 10° N 20:12:38 14° NNE 20:15:29 10° ENE
Cosmos 1954 Rocket 4.4 20:08:31 10° SW 20:13:42 62° WNW 20:18:53 10° NNE
IGS 5A 3.3 20:13:40 65° SE 20:14:13 81° ENE 20:18:24 10° NNW
FALCON 9 DEB 3.3 20:11:04 10° WSW 20:14:16 72° W 20:14:16 72° W
Cosmos 1980 Rocket 3.3 20:10:40 10° NNW 20:15:41 32° NE 20:17:17 27° ENE
Cosmos 1892 2.6 20:12:51 10° NNW 20:16:45 82° W 20:17:06 72° SSW
STARLINK-1143 3.7 20:12:41 10° WNW 20:16:47 62° SSW 20:16:57 61° SSW
STARLINK-52 4.1 20:16:00 10° WSW 20:18:09 39° W 20:18:09 39° W
ATLAS CENTAUR R/B 2.2 20:15:44 10° NNW 20:19:22 35° NE 20:19:27 35° NE
Cosmos 1741 Rocket 3.9 20:18:19 42° S 20:20:01 65° ESE 20:25:20 10° NNE
STARLINK-1241 3.8 20:17:42 10° WNW 20:21:46 58° SSW 20:21:46 58° SSW
Mayak 1.2 20:19:39 10° NE 20:19:48 11° NE 20:19:48 11° NE
BREEZE M DEB (TANK) 3.4 20:18:34 10° SW 20:22:24 65° SSE 20:34:45 10° ENE
SPOT 1/Viking Rocket 3.5 20:21:22 49° SSE 20:22:50 86° ENE 20:28:06 10° NNW
CARTOSAT-1 3.6 20:22:53 58° ENE 20:22:58 58° ENE 20:27:15 10° N
Cosmos 1825 3.0 20:20:25 10° N 20:23:21 41° NE 20:23:21 41° NE
ATLAS 5 CENTAUR R/B 2.9 20:21:22 10° WSW 20:25:28 41° NW 20:30:09 10° NE
CZ-4C R/B 3.3 20:19:04 10° NW 20:25:45 52° NE 20:29:18 31° E
STARLINK-1239 4.0 20:22:40 10° WNW 20:26:31 53° SW 20:26:31 53° SW
Cosmos 2208 Rocket 4.0 20:22:08 10° NNW 20:27:20 65° ENE 20:28:08 56° ESE
Cosmos 1763 Rocket 3.5 20:24:37 10° NNW 20:29:50 74° WSW 20:30:58 53° S
STARLINK-1240 4.1 20:27:40 10° WNW 20:31:18 49° SW 20:31:18 49° SW
Okean 3 Rocket 3.5 20:29:17 10° N 20:33:36 70° ENE 20:33:36 70° ENE
Resurs 01 Rocket 3.6 20:31:54 14° SW 20:34:38 25° W 20:38:17 10° NW
Cosmos 1766 Rocket 3.7 20:31:07 10° N 20:35:19 60° ENE 20:35:19 60° ENE
Cosmos 540 Rocket 3.4 20:31:14 10° NNW 20:36:25 67° ENE 20:36:54 63° E
STARLINK-1216 4.3 20:32:40 10° WNW 20:36:05 44° WSW 20:36:05 44° WSW
Cosmos 2360 4.4 20:34:33 10° NNW 20:40:10 55° NE 20:41:02 50° E
Iridium 4 Rocket 3.8 20:37:04 10° NNW 20:41:06 46° W 20:41:55 40° WSW
USA 234 3.1 20:35:17 10° ENE 20:41:49 66° SE 20:48:19 10° SW
Cosmos 1814 Rocket 3.9 20:36:43 10° NNW 20:42:07 74° ENE 20:42:40 67° ESE
Landsat 7 4.3 20:42:03 46° SW 20:43:03 55° W 20:47:45 10° NNW
Cosmos 2278 3.9 20:39:25 10° NNW 20:45:00 56° NE 20:45:43 52° E
Cosmos 2082 Rocket 3.6 20:49:08 24° ENE 20:49:08 24° ENE 20:51:51 10° NE
RESURS DK-1 2.8 20:48:13 10° NW 20:51:45 58° WNW 20:51:45 58° WNW
SL-4 R/B 3.3 20:50:29 10° WNW 20:52:28 31° WNW 20:52:28 31° WNW
Cosmos 1833 Rocket 3.0 20:56:28 50° ENE 20:56:28 50° ENE 21:01:01 10° NE
ASTEX 1 3.8 20:57:33 50° NE 20:57:33 50° NE 21:01:50 10° N
USA 32 4.3 20:52:47 10° NNW 20:57:58 64° W 20:58:49 55° SW
Cosmos 2151 3.5 20:54:57 10° NNW 20:58:42 55° WNW 20:58:42 55° WNW
Meteor 2-10 Rocket 3.5 20:58:38 69° SW 20:59:15 82° WNW 21:04:45 10° N
Cosmos 841 Rocket 3.6 21:02:50 10° NNW 21:08:04 64° WSW 21:08:12 63° WSW
COSMOS 2406 3.3 21:08:16 43° SW 21:10:09 73° WNW 21:15:54 10° NNE
Cosmos 1408 4.5 21:09:18 10° NNW 21:11:46 28° WNW 21:11:46 28° WNW
Cosmos 1408 Rocket 4.2 21:11:24 10° N 21:14:53 54° NNW 21:14:53 54° NNW
Nadezhda 3 Rocket 4.0 21:15:55 58° SSW 21:17:14 77° W 21:23:33 10° N
Cosmos 1535 Rocket 4.3 21:14:46 10° N 21:20:58 84° E 21:21:17 80° SE
SPOT 5 3.7 21:22:33 38° W 21:22:33 38° W 21:26:06 10° NNW
Terra 2.4 21:25:36 52° WNW 21:25:36 52° WNW 21:29:49 10° NNW
Cosmos 2369 4.0 21:21:53 10° NW 21:27:19 56° WSW 21:27:19 56° WSW
ERS-1 Rocket 4.1 21:27:10 34° WSW 21:27:30 35° W 21:32:06 10° NNW
Cosmos 1697 Rocket 3.1 21:24:43 10° NW 21:30:07 52° WSW 21:30:07 52° WSW
Cosmos 2221 4.2 21:34:15 27° NNE 21:34:15 27° NNE 21:36:22 10° NNE
Cosmos-2242 4.5 21:33:27 33° WNW 21:33:27 33° WNW 21:37:21 10° N
Cosmos 1934 Rocket 4.1 21:41:40 10° NNW 21:47:50 63° W 21:48:02 63° WSW
SL-16 R/B 2.8 21:45:01 10° NNW 21:50:12 47° NE 21:50:12 47° NE
Cosmos 2360 Rocket 3.6 21:47:37 10° NNW 21:52:23 27° NE 21:53:00 27° NE
Mayak 0.5 21:54:08 10° N 21:56:22 30° N 21:56:22 30° N
ATLAS CENTAUR R/B 3.9 21:54:50 10° WNW 21:55:38 15° WNW 21:55:38 15° WNW
Cosmos 2322 Rocket 2.9 21:52:45 10° NNW 21:57:48 45° NE 21:57:48 45° NE
Cosmos 1980 Rocket 2.8 21:54:30 10° NW 21:59:03 49° WNW 21:59:03 49° WNW
Cosmos 1605 Rocket 4.1 21:58:10 10° NNW 22:03:58 70° WNW 22:03:58 70° WNW
Thor Agena Rocket 4.2 22:04:07 10° NNE 22:07:59 51° N 22:07:59 51° N
Cosmos 2333 Rocket 4.3 22:06:40 10° N 22:10:38 19° NE 22:12:45 16° ENE
ATLAS 5 CENTAUR R/B 4.5 22:08:09 10° NW 22:11:27 18° N 22:15:06 10° NE
ALOS 2 4.3 22:16:03 31° N 22:16:03 31° N 22:18:26 10° N
CZ-4C R/B 3.1 22:07:36 10° NW 22:14:28 56° WSW 22:14:28 56° WSW
USA 234 3.7 22:18:24 10° ENE 22:24:49 60° NNW 22:31:13 10° W
Cosmos 2082 Rocket 2.9 22:30:55 48° NW 22:30:55 48° NW 22:36:16 10° NNE
Cosmos 1833 Rocket 4.2 22:38:06 26° WNW 22:39:46 31° NW 22:44:45 10° NNE
Cosmos 2219 Rocket 3.7 22:45:25 10° NNW 22:50:12 28° NE 22:51:00 27° ENE
Cosmos 1607 4.3 22:55:17 59° NW 22:55:17 59° NW 23:01:18 10° NE
Cosmos 2061 Rocket 4.2 22:56:03 10° N 23:01:24 67° N 23:01:24 67° N
Cosmos 2322 4.4 23:07:32 10° NNW 23:12:24 49° NNE 23:12:24 49° NNE
COSMOS 2428 3.8 23:10:17 10° NNW 23:15:33 37° NE 23:15:49 37° NE
SL-16 R/B 4.1 23:17:35 23° E 23:19:29 27° ENE 23:24:34 10° N
Cosmos 2233 Rocket 4.3 23:18:07 10° N 23:23:39 63° NE 23:23:39 63° NE
Cosmos 2016 Rocket 4.5 23:26:23 10° NNW 23:31:34 53° NW 23:31:34 53° NW
Cosmos 1725 Rocket 4.3 23:26:50 10° NNW 23:32:04 60° NW 23:32:04 60° NW
SL-16 R/B 3.9 23:29:26 10° NW 23:32:03 24° WNW 23:32:03 24° WNW
Cosmos 2360 Rocket 3.3 23:31:17 10° NNW 23:34:45 38° NW 23:34:45 38° NW
Cosmos 2322 Rocket 3.9 23:37:05 10° NW 23:39:36 23° WNW 23:39:36 23° WNW
CZ-2D R/B 4.1 23:39:26 10° NE 23:43:03 20° E 23:43:03 20° E
MOS 1-B Rocket 4.4 23:37:25 10° N 23:43:26 62° WNW 23:43:26 62° WNW
Cosmos 2123 Rocket 4.3 23:45:08 61° NNW 23:45:08 61° NNW 23:50:29 10° N
SJ 16-02 3.6 23:52:41 20° NE 23:52:41 20° NE 23:54:22 10° NE
